Regional Weather Roundup
Issued by NWS

Home | Current Version | Previous Version | Text Only | Print | Product List | Glossary On
Versions: 1 2 3 4 5 6 7 8 9 10 11 12 13 14 15 16 17 18 19 20 21 22 23 24 25 26 27 28 29 30 31 32 33 34 35 36 37 38 39 40 41 42 43 44 45 46 47 48 49 50
000
ASUS43 KDMX 100707
RWRIA

WEATHER ROUNDUP FOR IOWA
NATIONAL WEATHER SERVICE DES MOINES IA
200 AM CDT THU JUL 10 2014

NOTE: "FAIR" INDICATES FEW OR NO CLOUDS BELOW 12,000 FEET WITH NO
SIGNIFICANT WEATHER AND/OR OBSTRUCTIONS TO VISIBILITY.

* - THESE STATIONS ARE NOT NWS STATIONS...THUS NOT UNDER NWS
QUALITY CONTROL.  THEY ALSO DO NOT REPORT WEATHER SUCH
AS PRECIPITATION OR FOG.

IAZ001>003-012>014-020>022-031>034-043>046-100800-
   NORTHWEST IOWA

CITY           SKY/WX    TMP DP  RH WIND       PRES   REMARKS
CARROLL *      MOCLDY    61  61 100 CALM      30.04S
CHEROKEE *     CLEAR     63  61  94 CALM      30.03S
DENISON *      PTCLDY    63  61  94 CALM      30.02S
LE MARS *      CLEAR     61  59  94 CALM      30.02F
ORANGE CITY *  CLEAR     66  59  77 CALM      30.02F
SHELDON *      PTCLDY    61  59  94 SE5       30.02S
SIOUX CITY     CLEAR     63  60  90 SE5       30.01F
SPENCER        PTCLDY    60  59  96 CALM      30.03S FOG
STORM LAKE *   CLEAR     63  63 100 SW6       30.04F
$$

IAZ055>058-069>071-079>083-090>094-100800-
   SOUTHWEST IOWA

CITY           SKY/WX    TMP DP  RH WIND       PRES   REMARKS
ATLANTIC *     CLOUDY    64  59  82 S3        30.04S
AUDUBON *      CLEAR     61  59  94 CALM      30.06S FOG
CLARINDA *     CLOUDY    68  63  83 S3        30.06F
COUNCIL BLFS * MOCLDY    68  64  88 S7        30.02F
CRESTON *      CLEAR     63  59  88 SE6       30.07S
HARLAN  *      CLEAR     61  61 100 CALM      30.08S FOG
LAMONI         MOCLDY    67  61  81 SE7       30.07S
SHENANDOAH *   CLOUDY    70  66  88 SE3       30.05S
$$

IAZ047>049-059>061-072>074-084-100800-
   CENTRAL IOWA

CITY           SKY/WX    TMP DP  RH WIND       PRES   REMARKS
AMES           CLEAR     63  60  90 S3        30.04S
ANKENY *       CLEAR     64  61  88 CALM      30.05S
CHARITON *     CLEAR     63  59  88 S7        30.07S
DES MOINES     PTCLDY    67  59  75 S8        30.05S
GRINNELL*      CLEAR     63  57  82 S3        30.07S
KNOXVILLE *    CLEAR     64  59  82 S8        30.05S
MARSHALLTOWN   PTCLDY    63  59  87 S5        30.05S
PELLA *        CLEAR     63  59  88 S5        30.07S
PERRY *          N/A     61  61 100 S5        30.05R
$$

IAZ004>006-015-016-023>025-035-036-100800-
   NORTH CENTRAL IOWA

CITY           SKY/WX    TMP DP  RH WIND       PRES   REMARKS
ALGONA *       MOCLDY    64  61  88 S3        30.04S
CLARION *      CLEAR     63  61  94 S7        30.04S
ESTHERVILLE    CLEAR     60  59  96 S3        30.03F
FORT DODGE *   MOCLDY    64  61  88 CALM      30.05S
MASON CITY     PTCLDY    59  58  96 S3        30.06R
FOREST CITY *  CLEAR     59  59 100 CALM      30.04S
IOWA FALLS *     N/A     63  59  88 S6        30.06S
$$

IAZ007>011-017>019-026>030-037>042-050>054-066-100800-
   NORTHEAST IOWA

CITY           SKY/WX    TMP DP  RH WIND       PRES   REMARKS
CEDAR RAPIDS   CLEAR     61  58  90 S5        30.06S
CHARLES CITY * PTCLDY    61  57  88 SE6       30.06S
CLINTON *      MOCLDY    61  57  88 SE3       30.11S
DECORAH *        N/A    N/A N/A N/A MISG        N/A
DUBUQUE        CLOUDY    63  57  81 CALM      30.09R
MONTICELLO *   CLEAR     61  59  94 CALM      30.07S
OELWEIN *      PTCLDY    61  61 100 SE5       30.07S
WATERLOO       CLEAR     65  57  75 S3        30.04S
$$

IAZ064-065-067-068-078-100800-
   EAST CENTRAL IOWA

CITY           SKY/WX    TMP DP  RH WIND       PRES   REMARKS
DAVENPORT      CLOUDY    63  58  83 CALM      30.09R
IOWA CITY      CLEAR     62  60  93 CALM      30.08S
MT. PLEASANT * CLEAR     59  57  94 SE5       30.09S
MUSCATINE *    CLEAR     61  59  94 CALM      30.08S
QUAD CITIES    MOCLDY    63  57  81 CALM      30.08S
$$

IAZ062-063-075>077-085>089-095>099-100800-
   SOUTHEAST IOWA

CITY           SKY/WX    TMP DP  RH WIND       PRES   REMARKS
BURLINGTON     CLEAR     61  60  97 CALM      30.08S
FAIRFIELD *    CLEAR     61  57  88 CALM      30.08S
FORT MADISON * CLEAR     64  63  94 S3        30.10S
KEOKUK *       CLEAR     63  59  88 CALM      30.08S
OSKALOOSA *      N/A     61  59  94 S5        30.07S
CENTERVILLE *  CLEAR     59  59 100 S6        30.09S
OTTUMWA        CLEAR     61  58  90 S7        30.07S
WASHINGTON *   CLEAR     61  61 100 CALM      30.08S
$$

ABBREVIATIONS USED IN REMARKS
   TC - TEMPERATURES IN CELSIUS
  WCI - WIND CHILL INDEX
   HX - HEAT INDEX
  VSB - VISIBILITY
$$




USA.gov is the U.S. government's official web portal to all federal, state and local government web resources and services.